星链-36432(STARLINK-36432)

导读 | 豆包AI

STARLINK-36432是美国SpaceX公司星链(Starlink)星座的第二代低轨通信卫星,于2026年1月9日发射入轨,轨道倾角约92.9度,属于星链Gen2批次卫星。 作为现役主力二代星,它标配激光星间链路,采用增强型相控阵天线,支持Ku/Ka/E多频段通信,单星容量超100Gbps,可提供百兆至千兆级的高速互联网接入,具备自主轨道机动和避碰能力,服务覆盖全球,支撑星链完成全球低轨宽带星座组网。

基本信息
目录编号:
67342
目录名称:
STARLINK-36432
国际标识:
2026-003J
轨道中心:
EARTH
卫星名称:
星链-36432
卫星全名:
星链-36432(STARLINK-36432)
卫星状态:
在轨 (已飞行136 天)
发射日期:
2026-01-09 UTC
国别 :
美国 (US)
星等 :
--
轨道信息
数据来源 国际轨道数据
星历时间: 2026-05-23T17:34:07+0800
1天前
查看轨道信息
半长轴: 6861.186km
偏心率: 0.0001543
轨道倾角: 43.000°
近地点辐角 265.126°
升交点赤经 164.804°
平近点角 94.942°
近地点: 481.99km
远地点: 484.108km
周期: 94.267分钟
每日圈数: 15.275801
详细信息
固有亮度:
5
最大亮度:
2.5
卫星平台:
Starlink V1.0
覆盖范围:
全球
运营商:
太空探索技术公司
运营商所在国:
美国
制造商(研发单位):
太空探索技术公司
制造商所在国:
美国
使用方式:
暂无
卫星简介
Starlink 计划是 SpaceX 推出的全球卫星互联网项目,通过发射低轨道卫星,为全球尤其是偏远地区提供高速、低延迟的互联网服务。自 2019 年起,Starlink 已部署数千颗卫星,旨在缩小全球数字鸿沟,推动互联网普及。该项目还为军事、航空等行业提供通信支持,带来广泛经济效益。
2D轨道图
3D轨道图
轨道高度分析图
轨道倾角分析图
轨道综合分析图
查看轨道综合分析图